Location: Béaulencourt
(50.0796°N, 2.8795°E)
Time: 00:46:59
(UTC+00:00)

Cosmos 1484 Rocket - Pass Details

Date: 20 January 2026
Orbit: 439 x 466 km, 97.6° (Epoch: 18 February)

Event Time Altitude Azimuth Distance (km) Brightness Sun altitude
Rises 05:31:31 0° 18° (NNE) 2,464 6.3 -19.7°
Reaches altitude 10° 05:33:36 10° 24° (NNE) 1,592 5.4 -19.4°
Maximum altitude 05:36:55 47° 100° (E) 608 3.5 -18.8°
Drops below altitude 10° 05:40:14 10° 176° (S) 1,594 5.3 -18.3°
Sets 05:42:19 0° 182° (S) 2,468 6.3 -18.0°
